LVKKW SADF-SUMU

Flight info

Callsign LVKKW
Flight time N/A
Altitude 17000
Route DCT DORVO DCT
Aircraft BE20/L-SDFGR/S

Departure

Time 2026-04-27 02:30
Airport San Fernando Airport (SADF)

Arrival

Time N/A
Airport Carrasco General Cesáreo L. Berisso International Airport (SUMU)
Time Latitude Longitude Altitude Speed Heading
2026-04-27 02:00 -34.45536 -58.58359 12 ft 0 kts 154°
2026-04-27 02:23 -34.45537 -58.58359 12 ft 1 kts 165°
2026-04-27 02:23 -34.45537 -58.58368 12 ft 0 kts 334°
2026-04-27 02:23 -34.45508 -58.58372 12 ft 3 kts 32°
2026-04-27 02:23 -34.45490 -58.58345 12 ft 6 kts 53°
2026-04-27 02:24 -34.45476 -58.58317 12 ft 4 kts 58°
2026-04-27 02:24 -34.45470 -58.58305 12 ft 8 kts 61°
2026-04-27 02:24 -34.45428 -58.58205 12 ft 16 kts 64°
2026-04-27 02:25 -34.45367 -58.58067 12 ft 19 kts 62°
2026-04-27 02:25 -34.45303 -58.57989 12 ft 9 kts 322°
2026-04-27 02:25 -34.45238 -58.58035 12 ft 12 kts 331°
2026-04-27 02:25 -34.45152 -58.58100 12 ft 16 kts 331°
2026-04-27 02:26 -34.45078 -58.58150 12 ft 0 kts 324°
2026-04-27 02:26 -34.45056 -58.58168 12 ft 7 kts 327°
2026-04-27 02:26 -34.44997 -58.58212 12 ft 12 kts 333°
2026-04-27 02:26 -34.44947 -58.58246 12 ft 4 kts 329°
2026-04-27 02:27 -34.44941 -58.58250 12 ft 0 kts 329°
2026-04-27 02:27 -34.44921 -58.58265 12 ft 6 kts 328°
2026-04-27 02:27 -34.44869 -58.58307 12 ft 11 kts 311°
2026-04-27 02:28 -34.44865 -58.58397 12 ft 13 kts 220°
2026-04-27 02:28 -34.44890 -58.58425 12 ft 0 kts 227°
2026-04-27 02:30 -34.45071 -58.58640 12 ft 82 kts 221°
2026-04-27 02:30 -34.45643 -58.59306 125 ft 131 kts 226°
2026-04-27 02:30 -34.46278 -58.60162 643 ft 144 kts 233°
2026-04-27 02:31 -34.46857 -58.61107 1324 ft 140 kts 235°
2026-04-27 02:31 -34.47411 -58.62067 1880 ft 141 kts 234°
2026-04-27 02:31 -34.48159 -58.62766 2492 ft 140 kts 200°
2026-04-27 02:31 -34.49134 -58.62487 3055 ft 167 kts 154°
2026-04-27 02:32 -34.49762 -58.61264 3851 ft 185 kts 115°
2026-04-27 02:32 -34.50014 -58.59663 4286 ft 201 kts 114°
2026-04-27 02:32 -34.50250 -58.58083 5196 ft 185 kts 111°
2026-04-27 02:32 -34.50519 -58.56542 5602 ft 197 kts 116°
2026-04-27 02:33 -34.50798 -58.54927 6235 ft 197 kts 111°
2026-04-27 02:33 -34.51046 -58.53298 6824 ft 197 kts 112°
2026-04-27 02:33 -34.51312 -58.51664 7309 ft 201 kts 114°
2026-04-27 02:33 -34.51698 -58.50046 7824 ft 199 kts 120°
2026-04-27 02:34 -34.52140 -58.48441 8484 ft 203 kts 116°
2026-04-27 02:34 -34.52465 -58.46852 9329 ft 194 kts 114°
2026-04-27 02:34 -34.52773 -58.45238 9933 ft 201 kts 111°
2026-04-27 02:34 -34.53087 -58.43586 10549 ft 204 kts 115°
2026-04-27 02:35 -34.53460 -58.41947 11215 ft 205 kts 115°
2026-04-27 02:35 -34.53833 -58.40296 11848 ft 207 kts 115°
2026-04-27 02:35 -34.54202 -58.38600 12445 ft 210 kts 114°
2026-04-27 02:35 -34.54570 -58.36865 13010 ft 214 kts 114°
2026-04-27 02:36 -34.54933 -58.35116 13547 ft 218 kts 113°
2026-04-27 02:36 -34.55301 -58.33321 14063 ft 222 kts 112°
2026-04-27 02:36 -34.55673 -58.31502 14540 ft 226 kts 113°
2026-04-27 02:36 -34.56054 -58.29628 14997 ft 230 kts 113°
2026-04-27 02:37 -34.56432 -58.27752 15436 ft 234 kts 114°
2026-04-27 02:37 -34.56824 -58.25806 15870 ft 238 kts 114°
2026-04-27 02:37 -34.57216 -58.23863 16287 ft 241 kts 114°
2026-04-27 02:37 -34.57614 -58.21875 16707 ft 245 kts 114°
2026-04-27 02:38 -34.58026 -58.19829 16944 ft 257 kts 115°
2026-04-27 02:38 -34.58476 -58.17656 17005 ft 278 kts 114°
2026-04-27 02:38 -34.58966 -58.15290 17005 ft 298 kts 113°
2026-04-27 02:38 -34.59481 -58.12770 17006 ft 315 kts 112°
2026-04-27 02:39 -34.60013 -58.10147 16995 ft 329 kts 112°
2026-04-27 02:39 -34.60564 -58.07418 16984 ft 339 kts 111°
2026-04-27 02:39 -34.61130 -58.04609 16966 ft 347 kts 111°
2026-04-27 02:39 -34.61701 -58.01754 16967 ft 350 kts 111°
2026-04-27 02:40 -34.62276 -57.98890 16961 ft 350 kts 111°
2026-04-27 02:40 -34.62853 -57.96020 16957 ft 351 kts 111°
2026-04-27 02:40 -34.63434 -57.93130 16950 ft 351 kts 111°
2026-04-27 02:40 -34.64008 -57.90261 16949 ft 352 kts 110°
2026-04-27 02:41 -34.64583 -57.87382 16951 ft 352 kts 111°
2026-04-27 02:41 -34.65165 -57.84467 16961 ft 353 kts 110°
2026-04-27 02:41 -34.65736 -57.81601 16950 ft 353 kts 111°
2026-04-27 02:41 -34.66312 -57.78706 16964 ft 353 kts 110°
2026-04-27 02:42 -34.66890 -57.75797 16951 ft 354 kts 110°
2026-04-27 02:42 -34.67468 -57.72890 16936 ft 354 kts 110°
2026-04-27 02:42 -34.68039 -57.70006 16941 ft 353 kts 110°
2026-04-27 02:42 -34.68610 -57.67111 16955 ft 353 kts 110°
2026-04-27 02:43 -34.69178 -57.64238 16946 ft 353 kts 110°
2026-04-27 02:43 -34.69752 -57.61328 16940 ft 353 kts 110°
2026-04-27 02:43 -34.70322 -57.58436 16930 ft 353 kts 110°
2026-04-27 02:43 -34.70893 -57.55536 16941 ft 353 kts 110°
2026-04-27 02:44 -34.71425 -57.52618 16946 ft 354 kts 107°
2026-04-27 02:44 -34.71809 -57.49657 16916 ft 358 kts 99°
2026-04-27 02:44 -34.71851 -57.46631 16940 ft 359 kts 93°
2026-04-27 02:44 -34.71758 -57.43619 16934 ft 360 kts 90°
2026-04-27 02:45 -34.71615 -57.40585 16944 ft 360 kts 90°
2026-04-27 02:45 -34.71464 -57.37557 16930 ft 361 kts 90°
2026-04-27 02:45 -34.71318 -57.34510 16942 ft 360 kts 90°
2026-04-27 02:45 -34.71180 -57.31491 16932 ft 359 kts 90°
2026-04-27 02:46 -34.71046 -57.28433 16929 ft 359 kts 89°
2026-04-27 02:46 -34.70919 -57.25417 16908 ft 359 kts 90°
2026-04-27 02:46 -34.70795 -57.22393 16921 ft 358 kts 90°
2026-04-27 02:46 -34.70673 -57.19406 16921 ft 357 kts 90°
2026-04-27 02:47 -34.70551 -57.16392 16927 ft 357 kts 90°
2026-04-27 02:47 -34.70431 -57.13398 16907 ft 357 kts 90°
2026-04-27 02:47 -34.70309 -57.10386 16915 ft 356 kts 90°
2026-04-27 02:47 -34.70187 -57.07364 16903 ft 356 kts 90°
2026-04-27 02:48 -34.70065 -57.04391 16899 ft 356 kts 90°
2026-04-27 02:48 -34.69941 -57.01374 16902 ft 356 kts 90°
2026-04-27 02:48 -34.69818 -56.98394 16927 ft 355 kts 89°
2026-04-27 02:48 -34.69694 -56.95403 16903 ft 356 kts 90°
2026-04-27 02:49 -34.69569 -56.92399 16884 ft 356 kts 89°
2026-04-27 02:49 -34.69444 -56.89413 16819 ft 344 kts 89°
2026-04-27 02:49 -34.69323 -56.86579 16654 ft 332 kts 89°
2026-04-27 02:49 -34.69202 -56.83826 16408 ft 325 kts 90°
2026-04-27 02:50 -34.69084 -56.81118 16080 ft 321 kts 90°
2026-04-27 02:50 -34.68966 -56.78383 15711 ft 320 kts 90°
2026-04-27 02:50 -34.68851 -56.75715 15343 ft 319 kts 90°
2026-04-27 02:50 -34.68737 -56.73051 14971 ft 317 kts 90°
2026-04-27 02:51 -34.68621 -56.70378 14596 ft 314 kts 91°
2026-04-27 02:51 -34.68508 -56.67767 14226 ft 312 kts 91°
2026-04-27 02:51 -34.68395 -56.65156 13862 ft 310 kts 91°
2026-04-27 02:51 -34.68280 -56.62544 13475 ft 308 kts 91°
2026-04-27 02:52 -34.68166 -56.59965 13098 ft 306 kts 91°
2026-04-27 02:52 -34.68051 -56.57410 12727 ft 305 kts 91°
2026-04-27 02:52 -34.67935 -56.54826 12346 ft 303 kts 91°
2026-04-27 02:52 -34.67820 -56.52279 11973 ft 302 kts 91°
2026-04-27 02:53 -34.67707 -56.49776 11600 ft 301 kts 91°
2026-04-27 02:53 -34.67592 -56.47234 11225 ft 299 kts 91°
2026-04-27 02:53 -34.67478 -56.44718 10851 ft 298 kts 92°
2026-04-27 02:53 -34.67364 -56.42222 10473 ft 297 kts 92°
2026-04-27 02:54 -34.67249 -56.39717 10104 ft 296 kts 92°
2026-04-27 02:54 -34.67136 -56.37248 9731 ft 295 kts 92°
2026-04-27 02:54 -34.67020 -56.34759 9359 ft 295 kts 91°
2026-04-27 02:54 -34.66905 -56.32278 8972 ft 294 kts 91°
2026-04-27 02:55 -34.66790 -56.29807 8587 ft 293 kts 91°
2026-04-27 02:55 -34.66675 -56.27358 8207 ft 293 kts 92°
2026-04-27 02:55 -34.66559 -56.24897 7824 ft 292 kts 91°
2026-04-27 02:55 -34.66441 -56.22422 7438 ft 291 kts 92°
2026-04-27 02:56 -34.66325 -56.19984 7060 ft 289 kts 92°
2026-04-27 02:56 -34.66209 -56.17591 6672 ft 285 kts 92°
2026-04-27 02:56 -34.66092 -56.15203 6275 ft 281 kts 92°
2026-04-27 02:56 -34.65977 -56.12837 5883 ft 278 kts 92°
2026-04-27 02:57 -34.65863 -56.10515 5498 ft 276 kts 92°
2026-04-27 02:57 -34.65750 -56.08190 5110 ft 275 kts 91°
2026-04-27 02:57 -34.65623 -56.05887 4726 ft 276 kts 87°
2026-04-27 02:57 -34.65313 -56.03581 4346 ft 275 kts 85°
2026-04-27 02:58 -34.65199 -56.01291 3961 ft 272 kts 95°
2026-04-27 02:58 -34.65407 -55.99033 3520 ft 264 kts 105°
2026-04-27 02:58 -34.65771 -55.96921 3397 ft 247 kts 108°
2026-04-27 02:58 -34.66212 -55.94945 3243 ft 235 kts 111°
2026-04-27 02:59 -34.66700 -55.93106 3162 ft 225 kts 117°
2026-04-27 02:59 -34.67336 -55.91436 3107 ft 216 kts 129°
2026-04-27 02:59 -34.68101 -55.89919 3199 ft 200 kts 133°
2026-04-27 02:59 -34.68910 -55.88578 3167 ft 194 kts 141°
2026-04-27 03:00 -34.69789 -55.87362 3081 ft 190 kts 145°
2026-04-27 03:00 -34.70804 -55.86457 2997 ft 174 kts 170°
2026-04-27 03:00 -34.71930 -55.86186 2907 ft 158 kts 193°
2026-04-27 03:00 -34.72989 -55.86295 2894 ft 145 kts 208°
2026-04-27 03:01 -34.73857 -55.86848 2835 ft 135 kts 224°
2026-04-27 03:01 -34.74462 -55.87616 2897 ft 125 kts 236°
2026-04-27 03:01 -34.75011 -55.88457 2847 ft 131 kts 236°
2026-04-27 03:01 -34.75528 -55.89383 2697 ft 133 kts 240°
2026-04-27 03:02 -34.76033 -55.90317 2524 ft 134 kts 238°
2026-04-27 03:02 -34.76616 -55.91255 2235 ft 138 kts 236°
2026-04-27 03:02 -34.77196 -55.92165 2019 ft 135 kts 236°
2026-04-27 03:02 -34.77753 -55.93089 1786 ft 135 kts 239°
2026-04-27 03:03 -34.78295 -55.94006 1628 ft 130 kts 234°
2026-04-27 03:03 -34.79372 -55.95718 1252 ft 121 kts 237°
2026-04-27 03:03 -34.79831 -55.96483 1055 ft 102 kts 241°
2026-04-27 03:04 -34.80227 -55.97128 881 ft 90 kts 240°
2026-04-27 03:04 -34.80574 -55.97747 687 ft 90 kts 242°
2026-04-27 03:04 -34.80984 -55.98364 685 ft 95 kts 239°
2026-04-27 03:04 -34.81367 -55.99034 598 ft 97 kts 238°
2026-04-27 03:05 -34.81790 -55.99704 520 ft 101 kts 240°
2026-04-27 03:05 -34.82217 -56.00417 363 ft 106 kts 238°
2026-04-27 03:05 -34.82653 -56.01130 169 ft 102 kts 242°
2026-04-27 03:05 -34.83006 -56.01714 85 ft 73 kts 238°
2026-04-27 03:06 -34.83373 -56.02308 180 ft 107 kts 239°
2026-04-27 03:06 -34.83876 -56.03188 518 ft 139 kts 240°
2026-04-27 03:06 -34.84401 -56.04163 1306 ft 137 kts 241°
2026-04-27 03:06 -34.84905 -56.05170 1938 ft 140 kts 241°
2026-04-27 03:07 -34.85635 -56.05877 2594 ft 150 kts 207°
2026-04-27 03:07 -34.86794 -56.05764 2790 ft 198 kts 166°
2026-04-27 03:07 -34.87959 -56.04683 3145 ft 220 kts 147°
2026-04-27 03:07 -34.89169 -56.03364 2936 ft 245 kts 148°
2026-04-27 03:08 -34.90519 -56.02075 3063 ft 236 kts 159°
2026-04-27 03:08 -34.92019 -56.01598 2935 ft 216 kts 191°
2026-04-27 03:08 -34.93462 -56.01786 2971 ft 207 kts 195°
2026-04-27 03:08 -34.94920 -56.01998 2743 ft 211 kts 198°
2026-04-27 03:09 -34.96338 -56.02216 2924 ft 202 kts 195°
2026-04-27 03:09 -34.97743 -56.02363 2945 ft 200 kts 193°
2026-04-27 03:09 -34.99139 -56.02477 2946 ft 200 kts 192°
2026-04-27 03:09 -35.00532 -56.02567 2927 ft 200 kts 192°
2026-04-27 03:10 -35.01865 -56.02844 2935 ft 185 kts 215°
2026-04-27 03:10 -35.02709 -56.03931 3009 ft 173 kts 245°
2026-04-27 03:10 -35.02962 -56.05267 3385 ft 158 kts 267°
2026-04-27 03:10 -35.02779 -56.06635 3806 ft 169 kts 270°
2026-04-27 03:11 -35.02716 -56.08055 4428 ft 169 kts 266°
2026-04-27 03:11 -35.02687 -56.09463 5100 ft 167 kts 265°
2026-04-27 03:11 -35.02648 -56.10847 5763 ft 166 kts 265°
2026-04-27 03:11 -35.02595 -56.12228 6430 ft 163 kts 264°
2026-04-27 03:12 -35.02533 -56.13589 7098 ft 160 kts 264°
2026-04-27 03:12 -35.02467 -56.14901 7757 ft 156 kts 265°
2026-04-27 03:12 -35.02401 -56.16181 8420 ft 150 kts 264°
2026-04-27 03:12 -35.02335 -56.17403 9069 ft 144 kts 264°
2026-04-27 03:13 -35.02270 -56.18581 9724 ft 137 kts 265°
2026-04-27 03:13 -35.02208 -56.19686 10345 ft 129 kts 265°
2026-04-27 03:13 -35.02152 -56.20769 10851 ft 131 kts 264°
2026-04-27 03:13 -35.02100 -56.21888 11436 ft 138 kts 265°
2026-04-27 03:14 -35.02044 -56.23079 11823 ft 154 kts 265°
2026-04-27 03:14 -35.01983 -56.24530 11874 ft 185 kts 267°
2026-04-27 03:14 -35.01898 -56.26196 11878 ft 212 kts 268°
2026-04-27 03:14 -35.01788 -56.28062 11879 ft 228 kts 269°
2026-04-27 03:15 -35.01663 -56.30052 11874 ft 240 kts 269°
2026-04-27 03:15 -35.01535 -56.32109 11871 ft 248 kts 269°
2026-04-27 03:15 -35.01408 -56.34226 11864 ft 254 kts 269°
2026-04-27 03:15 -35.01280 -56.36386 11862 ft 259 kts 269°
2026-04-27 03:16 -35.01151 -56.38615 11859 ft 262 kts 269°